DELTA 1 DEB, 10643

Orbit data source: Space-Track

DELTA 1 DEB, 10643 is space debris in SSO originally from a launch on Thu, 29 Jul 1976 UTC launched from the Air Force Western Test Range (AFWTR). Debris objects in space refer to the collection of defunct objects orbiting the Earth. Examples of debris include non-operational satellites, rocket bodies, and fragments generated from explosions, collisions, or faulty payload assembly.

Loading next visibility...
Identifier
10643, 1976-077D
Orbit
SSO
Country
Flag of USUS
Related business
Manufacturer
Unknown
Mission
Spacecraft
Bus & Motor
Unknown
Mass
Unknown
Launch date (UTC)
1976-07-29 (49 years ago)
Launch vehicle
Unknown
Launch site
Air Force Western Test Range (AFWTR)
Object type
Payload
Rocket body
Debris
Shape & HBR
Unknown shape, 0.1 m
Radar Cross Section
Small (<0.1 m²)

Expand to show TLE details & history
Last TLE update: 2 days ago

TLE from 2 days ago
0 DELTA 1 DEB
1 10643U 76077D   25291.42911691  .00000020  00000-0  63644-3 0  9991
2 10643 102.0885 261.7012 0170647  71.0414  78.2219 12.10333720175139
Epoch: 2025-10-18T10:17Z
TLE epoch observation values (Epoch: 2025-10-18T10:17:55.701Z)
Latitude
28.15934°
Longitude
-93.39012°
Altitude
1,612.376 km
Speed
7.078 km/s
True Right ascension
05h 53m 00s
True Declination
28° 01' 54"
Sunlit
Object was in daylight at epoch
Visualization orbit readout
Latitude
Unknown
Longitude
Unknown
Altitude
Unknown
Speed
Unknown
Apparent Right ascension
Unknown
Apparent Declination
Unknown
Sunlit
N/A
Visualization observer readout
Local Sidereal Time
21:42:57
Azimuth
Unknown
Elevation
Unknown
Doppler factor
Unknown
Orbital elements
Apogee altitude
1,769.241 km
Perigee altitude
1,495.842 km
Semi-major axis
8,010.678 km
Eccentricity
0.01706
Inclination
102.0885°
RAAN
261.7012°
Arg. of periapsis
71.0414°
True anomaly
80.14421°
Mean anomaly
78.2219°
Eccentric anomaly
79.18226°
Mean motion
3.02719 °/min
Orbital period
118.92 mins
BSTAR
0.00063644
Loading maneuver chart data...
Computing Atmospheric mass density...
Loading historical data...
Loading historical data...
Loading historical data...
Loading historical data...
Loading historical data...
Loading historical data...
Loading historical data...

Documentation

Showing up to 5 results
|